Regional Weather Roundup
Issued by NWS

Home | Current Version | Previous Version | Text Only | Print | Product List | Glossary Off
Versions: 1 2 3 4 5 6 7 8 9 10 11 12 13 14 15 16 17 18 19 20 21 22 23 24 25 26 27 28 29 30 31 32 33 34 35 36 37 38 39 40 41 42 43 44 45 46 47 48 49 50

943
ASUS43 KLSX 090910
RWRMO

WEATHER SUMMARY FOR MISSOURI
NATIONAL WEATHER SERVICE SPRINGFIELD MO
300 AM CST TUE FEB 09 2016

NOTE: "FAIR" INDICATES FEW OR NO CLOUDS BELOW 12,000 FEET WITH NO
       SIGNIFICANT WEATHER AND/OR OBSTRUCTIONS TO VISIBILITY.
       CURRENT SKY AND/OR WEATHER CONDITIONS ARE NOT AVAILABLE FOR
       CHILLICOTHE AND FARMINGTON.

MOZ001>031-035>038-043-044-053-054-091000-
...NORTHERN AND WESTERN MISSOURI...

CITY           SKY/WX    TMP DP  RH WIND       PRES   REMARKS
KANSAS CTY INT CLEAR     26  13  57 NW21G26   30.02F WCI  12
KANSAS C DTWN  CLEAR     29  12  49 NW16G25   30.03F WCI  17
LEE`S SUMMIT   CLEAR     27   9  46 NW18G29   30.02F WCI  14
ST JOSEPH      CLEAR     24  10  55 N21G32    30.06S WCI   9
CHILLICOTHE      N/A     20  10  65 N14G24    30.02S WCI   7
KIRKSVILLE     FLURRIES  17   7  64 NW13G24   29.95S WCI   4

$$
MOZ066>068-077>081-088>096-101>105-091000-
...SOUTHWEST MISSOURI...

CITY           SKY/WX    TMP DP  RH WIND       PRES   REMARKS
SPRINGFIELD    PTCLDY    27  14  58 NW16G22   29.98F WCI  15
JOPLIN         MOCLDY    30  19  63 W10       30.07F WCI  21

$$
MOZ032>034-039>042-045>050-055>058-069>072-091000-
...CENTRAL MISSOURI...

CITY           SKY/WX    TMP DP  RH WIND       PRES   REMARKS
COLUMBIA       CLOUDY    21  11  65 NW17      29.93F WCI   7
JEFFERSON CITY PTCLDY    22  11  62 NW15G23   29.96F WCI   9
ROLLA          CLOUDY    21  11  65 W22G38    29.89S WCI   5
SEDALIA        PTCLDY    23  13  65 NW20G29   29.99F WCI   8
WHITEMAN AFB   PTCLDY    23  13  66 NW10      29.99F WCI  12
WARRENSBURG    CLEAR     23  18  80 NW9G16    30.02S WCI  13
OSAGE BEACH    MOCLDY    25  10  54 W12G22    29.96F WCI  14

$$
MOZ051-052-059>065-091000-
...EAST CENTRAL MISSOURI...

CITY           SKY/WX    TMP DP  RH WIND       PRES   REMARKS
ST LOUIS INTL  LGT SNOW  21  15  78 NW12      29.90F WCI   9
SPIRIT OF STL  LGT SNOW  21  18  86 W9        29.91F FOG     WCI  11
ST CHARLES     LGT SNOW  20  14  77 NW14      29.91S WCI   7

$$
MOZ072>076-082>087-097>100-106>115-091000-
...SOUTH CENTRAL AND SOUTHEAST MISSOURI...

CITY           SKY/WX    TMP DP  RH WIND       PRES   REMARKS
CAPE GIRARDEAU LGT SNOW  24  16  71 NW14      29.92R WCI  12
FARMINGTON     LGT SNOW  20  16  84 NW5       29.89F FOG     WCI  13
POPLAR BLUFF   CLOUDY    28  15  58 NW8       29.92F WCI  20
WEST PLAINS    PTCLDY    25  11  55 NW16G26   29.93R WCI  12

$$




USA.gov is the U.S. government's official web portal to all federal, state and local government web resources and services.